This is the latest recevied weather packets stored in our database for station/object KJ4RDP-13. If no packets are shown the sender has not sent any weather packets the latest 1 day(s).
| Time | Temp. | Humidity | Pressure | Rain* | Wind** | Luminosity | Snow |
|---|---|---|---|---|---|---|---|
| 1778029496 | 15° C | 78% | 1014.2 hPa | 0 mm | - | 0 W/m² | - |
| 1778029191 | 15° C | 78% | 1013.8 hPa | 0 mm | - | 0 W/m² | - |
| 1778028584 | 15.56° C | 72% | 1014.2 hPa | 0 mm | - | 0 W/m² | - |
| 1778027978 | 16.67° C | 70% | 1014.2 hPa | 0 mm | - | 0 W/m² | - |
| 1778027067 | 18.33° C | 61% | 1013.8 hPa | 0 mm | - | 0 W/m² | - |
| 1778026763 | 18.33° C | 58% | 1014.2 hPa | 0 mm | - | 0 W/m² | - |
| 1778026158 | 19.44° C | 56% | 1014.2 hPa | 0 mm | - | 5 W/m² | - |
| 1778025250 | 19.44° C | 55% | 1013.8 hPa | 0 mm | - | 13 W/m² | - |
| 1778024341 | 20° C | 54% | 1013.8 hPa | 0 mm | - | 29 W/m² | - |
| 1778023130 | 21.11° C | 51% | 1013.8 hPa | 0 mm | - | 73 W/m² | - |
| 1778021010 | 20.56° C | 52% | 1013.8 hPa | 0 mm | - | 195 W/m² | - |
| 1778019493 | 21.67° C | 50% | 1013.8 hPa | 0 mm | - | 280 W/m² | - |
| 1778017374 | 21.67° C | 53% | 1013.8 hPa | 0 mm | - | 302 W/m² | - |
| 1778017071 | 21.67° C | 53% | 1013.8 hPa | 0 mm | - | 347 W/m² | - |
| 1778016464 | 21.11° C | 49% | 1013.8 hPa | 0 mm | - | 322 W/m² | - |
| 1778015556 | 21.11° C | 47% | 1014.2 hPa | 0 mm | - | 455 W/m² | - |
| 1778015252 | 21.11° C | 49% | 1014.2 hPa | 0 mm | - | 396 W/m² | - |
| 1778014949 | 21.67° C | 48% | 1014.2 hPa | 0 mm | - | 321 W/m² | - |
| 1778012828 | 21.11° C | 47% | 1014.2 hPa | 0 mm | - | 435 W/m² | - |
| 1778011617 | 21.67° C | 46% | 1014.6 hPa | 0 mm | - | 467 W/m² | - |
| 1778010404 | 21.11° C | 46% | 1014.2 hPa | 0 mm | - | 492 W/m² | - |
| 1778010100 | 21.67° C | 46% | 1014.6 hPa | 0 mm | - | 449 W/m² | - |
| 1778008588 | 21.67° C | 45% | 1014.9 hPa | 0 mm | - | 392 W/m² | - |
| 1778006766 | 22.22° C | 47% | 1014.6 hPa | 0 mm | - | 426 W/m² | - |
* Rain latest hour (hover to see other rain measurements)
** Current wind speed in m/s (hover to see current wind gust speed)